This demonstration page uses our WeatherBlox Daily Observations layout. Learn more.

Left ArrowRight Arrow

41.55636, -103.73856

Hourly Observations for April 21, 2018

Temp ( °F °C ) Dew Point ( °F °C ) Humidity (%) Winds ( mph kmh ) Pressure ( in mb ) Visibility ( mi km ) Precip ( " mm )
12:58 am 00:58 Mostly Cloudy with Light Rain 32 0.1 32 -0.2 98 98 ESE 13 20 30.26 1025 6 10 0.01 0.25
1:58 am 01:58 Cloudy with Light Rain 32 -0.1 31 -0.3 99 99 ESE 14 22 30.26 1025 5 8 0.01 0.25
2:58 am 02:58 Mostly Cloudy with Light Snow 32 -0.1 31 -0.3 99 99 E 9 15 30.25 1025 5 8 N/A
3:58 am 03:58 Cloudy with Light Snow 31 -0.3 31 -0.5 99 99 E 6 9 30.25 1025 2 3 0.02 0.51
4:58 am 04:58 Cloudy with Light Snow 31 -0.4 31 -0.6 99 99 E 8 13 30.25 1025 3 4 0.02 0.51
5:58 am 05:58 Cloudy with Light Snow 31 -0.4 31 -0.6 99 99 E 7 11 30.26 1025 4 6 0.01 0.25
6:58 am 06:58 Mostly Cloudy with Light Snow 31 -0.4 31 -0.6 99 99 E 7 11 30.27 1025 1 2 0.01 0.25
7:58 am 07:58 Cloudy with Light Snow Showers 31 -0.3 31 -0.5 99 99 ESE 7 11 30.28 1026 3 5 0.01 0.25
8:58 am 08:58 Cloudy with Light Snow 32 -0.2 31 -0.3 99 99 SE 6 9 30.28 1026 3 5 0.02 0.51
9:58 am 09:58 Cloudy with Light Showers 33 0.4 32 0.2 99 99 SSE 5 7 30.29 1026 10 16 N/A
10:58 am 10:58 Cloudy with Light Rain 34 1.1 33 0.4 95 95 SSE 6 9 30.30 1026 10 16 N/A
11:58 am 11:58 Cloudy 36 2.1 32 0.2 87 87 S 3 6 30.29 1026 10 16 N/A
12:58 pm 12:58 Cloudy with Light Showers 36 2.2 34 1.1 93 93 SSE 3 6 30.28 1026 10 16 N/A
1:58 pm 13:58 Cloudy with Light Rain 38 3.4 35 1.4 87 87 N N/A 30.27 1025 10 16 0.01 0.25
2:58 pm 14:58 Cloudy 40 4.5 33 0.6 76 76 N N/A 30.27 1025 10 16 N/A
3:58 pm 15:58 Cloudy 41 5.1 34 1.3 77 77 SSE 7 11 30.26 1025 10 16 N/A
4:58 pm 16:58 Mostly Cloudy 41 4.9 34 1.1 77 77 SSE 7 11 30.25 1024 10 16 N/A
5:58 pm 17:58 Mostly Cloudy 41 5.1 35 1.8 79 79 SSE 10 17 30.24 1024 10 16 N/A
6:58 pm 18:58 Mostly Cloudy 41 4.8 35 1.7 81 81 S 9 15 30.24 1024 10 16 N/A
7:58 pm 19:58 Mostly Clear 35 1.5 33 0.7 94 94 SSE 9 15 30.26 1025 10 16 N/A
8:58 pm 20:58 Mostly Cloudy 34 1.3 33 0.6 95 95 S 9 15 30.30 1026 10 16 N/A
9:58 pm 21:58 Mostly Cloudy 34 1.1 33 0.7 97 97 S 9 15 30.28 1026 10 16 N/A
10:58 pm 22:58 Mostly Clear 32 undefined 31 -0.4 97 97 SSW 10 17 30.25 1025 10 16 N/A
11:58 pm 23:58 Mostly Cloudy 33 0.3 32 -0.2 96 96 S 6 9 30.27 1025 10 16 N/A

Powered by AerisWeather